SAPPHIRE

Satellite information

Favourite Embed

Satellite Type and Status

PAYLOADIN ORBIT

Key statistics

Satellite SAPPHIRE at a glance.

Uptime

4674

Days in orbit

Revolutions

≈ 14.4

Per day

Orbit

SSO

Sun Synchronous Orbit

Inclination

98.4

Latest

Satellite identification and parameters

Extended collection of information and parameters for SAPPHIRE.

Object identification

Identified? True

Debris? False

Object name: SAPPHIRE

International designator: 2013-009C

Object number (NORAD): 39088

Object ID (CCSDS): 39088

Country: CANADA (CA)

Current information (Y/N): Y

RCS size: MEDIUM

Orbital parameters

Period: 100.337 minutes

Inclination: 98.4153 deg

SMA: 7152.66 km

Apoapsis: 783.362 km

Periapsis: 765.689 km

RAAN: 165.2137 deg

Eccentricy: 0.00123543

Argument of periapsis: 86.1627 deg

Mean anomaly: 274.0971 deg

Mean motion: 14.35163467 rev/day

Mean motion (dot): 0.00000283 rev/day2

B* drag term: 0.00011384622 1/REarth

Two-line elements (TLE)

Creation date: Dec. 12, 2025, 10:14 a.m.

Reference frame: TEME

Reference center: EARTH

Epoch: Dec. 12, 2025, 6:02 a.m. UTC

TLE line 0: 0 SAPPHIRE

TLE line 1: 1 39088U 13009C 25346.25194370 .00000283 00000-0 11385-3 0 9996

TLE line 2: 2 39088 98.4153 165.2137 0012354 86.1627 274.0971 14.35163467669764

Live tracking on map

Real-time ground track for satellite SAPPHIRE.

In-orbit conjunctions

There are no conjunctions computed for SAPPHIRE, at the moment. Check back to stay up to date, as we update our databases every day.

Go to all conjunctions

Associated space launch

SARAL or Satellite with ARgos and ALtiKa is a cooperative altimetry technology mission of Indian Space Research Organisation (ISRO) and CNES (Space Agency of France). SARAL is tasked to perform altimetric measurements designed to study ocean circulation and sea surface elevation.

SAPPHIRE was lifted into orbit during the mission ‘PSLV-CA | SARAL’, on board a PSLV space rocket.

The launch took place on Feb. 25, 2013, 12:31 p.m. from Satish Dhawan Space Centre First Launch Pad.

For more information about the launch, click the button.

Launch to space PSLV-CA | SARAL
PSLV-CA | SARAL

Agency: N/A

Status: Launch Successful

Launch date: Feb. 25, 2013, 12:31 p.m. UTC

Rocket: PSLV

Launch pad: Satish Dhawan Space Centre First Launch Pad

Location: Satish Dhawan Space Centre, India

...

Latest news about this satellite

There are no fresh news available about this satellite. Check back as we update our databases every day.


Newsletter sign-up

Weekly statistics, charts and insights to help you stay on top of the space industry.